[[{"header":{"parameterUnit":"m.s-1","parameterCategory":1,"la1":30.2991,"la2":30.254,"lo1":-89.0895,"lo2":-89.0444,"dy":0.0017,"dx":0.0017,"nx":28,"ny":28,"refTime":"2024-07-19T21:00:00:Z","depth":0,"parameterNumber":2,"parameterNumberName":"U-component_of_WINDS"},"data":[0,0,0,0,0,0,0,0,0,0,0,0,0,0,0,0,0,0,0,0,0,0,0,0,0,0,0,0,0,0,0,0,0,0,0,0,0,0,0,0,0,0,0,0,0,0,0,0,0,0,0,0,0,0,0,0,0,0,1.0654,1.0654,0,1.0621,1.0621,1.062,1.0623,1.0623,1.0624,1.0624,1.0591,1.059,1.0588,0,0,0,0,0,0,0,0,0,0,0,0,0,1.0719,1.0718,1.0654,1.0654,1.0653,1.0621,1.0621,1.062,1.0623,1.0623,1.0624,1.0624,1.0591,1.059,1.0588,0,0,0,0,0,0,0,0,0,0,0,0,0,1.0689,1.0718,1.0654,1.0651,1.065,1.0621,1.0621,1.062,1.0622,1.0623,1.0624,1.0625,1.0592,1.059,1.0588,1.0561,0,0,1.0582,1.0581,0,0,0,0,0,0,0,0,1.0691,1.0687,1.0652,1.0651,1.065,1.0627,1.0632,1.06,1.0622,1.0633,1.0624,1.0625,1.0602,1.06,1.0592,1.056,1.0558,1.0582,1.058,1.058,1.0579,0,0,0,0,0,0,0,1.0693,1.0688,1.0641,1.0651,1.065,1.0651,1.0647,1.0626,1.0614,1.0632,1.0632,1.0628,1.0602,1.0594,1.0591,1.0558,1.0582,1.058,1.0579,1.0578,1.05,1.05,0,0,0,0,0,0,1.0696,1.069,1.0642,1.064,1.0673,1.0649,1.0645,1.0634,1.0614,1.0612,1.0628,1.0628,1.0597,1.0593,1.059,1.0556,1.058,1.0578,1.0577,1.0501,1.05,1.0499,0,0,0,0,0,0,1.0697,1.0691,1.0644,1.0665,1.0659,1.0647,1.0634,1.0632,1.0624,1.0611,1.0609,1.0621,1.0597,1.0593,1.0568,1.0555,1.0577,1.0575,1.0502,1.0501,1.05,1.0488,0,0,0,0,0,0,1.0699,1.0692,1.0682,1.0665,1.0658,1.0622,1.0633,1.0631,1.0621,1.0621,1.0604,1.0602,1.0597,1.0571,1.0566,1.0552,1.0573,1.0503,1.0502,1.05,1.049,1.0487,1.0484,0,0,0,0,0,1.0701,1.068,1.0681,1.0675,1.0645,1.0621,1.0617,1.0612,1.062,1.0609,1.06,1.0603,1.0557,1.0568,1.0563,1.0548,1.0504,1.0502,1.05,1.0491,1.0487,1.0484,0,0,0,0,0,0,1.0696,1.0678,1.0679,1.0651,1.0638,1.0622,1.0608,1.0609,1.0593,1.0594,1.0589,1.0585,1.056,1.0552,1.0564,1.0521,1.0532,1.0528,1.0526,1.0523,1.052,1.0522,1.0572,0,0,0,0,0,1.0692,1.0674,1.0659,1.0637,1.063,1.062,1.061,1.0607,1.0593,1.0587,1.0577,1.0563,1.0545,1.0534,1.0517,1.0489,1.0485,1.0476,1.0474,1.0471,1.0468,1.0451,1.0447,1.0493,1.0493,1.0493,0,0,1.0683,1.067,1.066,1.0635,1.0624,1.0606,1.0615,1.0596,1.0582,1.0584,1.0559,1.0552,1.0536,1.0509,1.0496,1.0501,1.0455,1.0469,1.0467,1.0465,1.0449,1.0445,1.0441,1.0492,1.0492,1.0492,0,0,1.0656,1.0646,1.0625,1.0614,1.0597,1.0591,1.0586,1.0569,1.0564,1.0539,1.054,1.0524,1.0494,1.0482,1.0472,1.0441,1.0442,1.0436,1.0421,1.0405,1.0401,1.0398,1.0385,1.0381,1.0433,1.0433,1.0433,0,1.0647,1.0619,1.0614,1.0594,1.0583,1.0584,1.0562,1.0552,1.0531,1.0523,1.0529,1.0491,1.0481,1.045,1.0442,1.0435,1.0429,1.0437,1.0402,1.0399,1.0395,1.0383,1.0379,1.0433,1.0433,1.0433,1.0433,0,1.0608,1.0588,1.0574,1.0552,1.054,1.0519,1.0511,1.0499,1.0497,1.049,1.0465,1.0452,1.0432,1.0425,1.0424,1.0394,1.0398,1.0403,1.0414,1.039,1.0379,1.0374,1.0431,1.0432,1.0432,1.0432,0,0,1.0576,1.0552,1.0547,1.0536,1.0518,1.0503,1.0483,1.0463,1.0452,1.0437,1.0419,1.0394,1.0398,1.0387,1.0384,1.037,1.0344,1.0377,1.0377,1.037,1.0309,1.0304,1.0299,1.0346,1.0345,1.0344,1.031,0,1.0546,1.0509,1.0504,1.0471,1.0453,1.0454,1.0436,1.0422,1.0415,1.0398,1.0391,1.0372,1.038,1.0373,1.0359,1.035,1.0332,1.0353,1.0328,1.0327,1.033,1.0293,1.0288,1.0256,1.0306,1.0305,1.0304,0,1.0507,1.049,1.0455,1.0438,1.043,1.0414,1.0395,1.0379,1.0364,1.036,1.0347,1.0346,1.0324,1.0337,1.0306,1.0321,1.031,1.0305,1.0303,1.0299,1.0313,1.0287,1.0246,1.0241,1.0298,1.0298,1.0299,0,1.0485,1.0454,1.0429,1.0421,1.0401,1.0389,1.038,1.0366,1.0354,1.0337,1.0329,1.0311,1.0301,1.0286,1.028,1.029,1.0249,1.0262,1.0244,1.0244,1.0234,1.0235,1.019,1.0231,1.0231,1.0231,1.0231,0,1.0451,1.0429,1.0419,1.0403,1.0378,1.0373,1.0349,1.0341,1.0328,1.031,1.031,1.0294,1.0287,1.027,1.0265,1.024,1.0236,1.0231,1.023,1.023,1.023,1.0222,1.0223,1.023,1.023,1.023,1.023,0,1.0422,1.0415,1.0387,1.037,1.0365,1.0348,1.0333,1.0318,1.0311,1.0289,1.0283,1.0273,1.0252,1.0245,1.022,1.0217,1.0186,1.0188,1.0191,1.019,1.0173,1.0174,1.012,1.0112,1.0159,1.0159,1.0158,0,1.04,1.0383,1.0365,1.0353,1.0343,1.0324,1.0312,1.0307,1.0294,1.0275,1.0261,1.0241,1.0223,1.019,1.018,1.0161,1.0161,1.0143,1.0158,1.0158,1.0158,1.0159,1.0156,1.014,1.0139,1.0139,1.0139,0,1.0362,1.0359,1.0341,1.0321,1.0306,1.0291,1.0276,1.0266,1.0258,1.0244,1.0222,1.0209,1.0183,1.0162,1.0142,1.0133,1.0134,1.0134,1.0129,1.0128,1.013,1.0127,1.0182,1.0135,1.0136,1.0136,1.0136,1.0136,1.0334,1.0319,1.0303,1.0283,1.0271,1.0257,1.0241,1.0232,1.0214,1.0192,1.019,1.0166,1.0151,1.0124,1.0114,1.0096,1.0101,1.0093,1.0091,1.0089,1.0086,1.0134,1.0092,1.0093,1.0093,1.0093,1.0093,0,1.0294,1.0284,1.0266,1.0244,1.0228,1.0231,1.0214,1.02,1.0179,1.0165,1.0148,1.0123,1.0103,1.0091,1.007,1.0058,1.0057,1.0052,1.0052,1.005,1.0084,1.009,1.0053,1.0053,1.0053,1.0053,1.0053,1.0053,1.0271,1.0244,1.0239,1.0207,1.0197,1.0173,1.0163,1.015,1.0138,1.011,1.0093,1.0085,1.0072,1.005,1.0031,1.0028,1.002,1.0014,1.0011,1.0043,1.0047,1.0051,1.0057,1.0013,1.0013,0.9978,0.9977,0.9977]},{"header":{"parameterUnit":"m.s-1","parameterCategory":1,"la1":30.2991,"la2":30.254,"lo1":-89.0895,"lo2":-89.0444,"dy":0.0017,"dx":0.0017,"nx":28,"ny":28,"refTime":"2024-07-19T21:00:00:Z","depth":0,"parameterNumber":3,"parameterNumberName":"V-component_of_WINDS"},"data":[0,0,0,0,0,0,0,0,0,0,0,0,0,0,0,0,0,0,0,0,0,0,0,0,0,0,0,0,0,0,0,0,0,0,0,0,0,0,0,0,0,0,0,0,0,0,0,0,0,0,0,0,0,0,0,0,0,0,2.6863,2.6864,0,2.6962,2.6963,2.6964,2.7034,2.7035,2.7035,2.7036,2.7131,2.7133,2.7135,0,0,0,0,0,0,0,0,0,0,0,0,0,2.6726,2.6728,2.6863,2.6864,2.6865,2.6962,2.6963,2.6964,2.7034,2.7035,2.7035,2.7036,2.713,2.7132,2.7135,0,0,0,0,0,0,0,0,0,0,0,0,0,2.6801,2.6729,2.6862,2.6912,2.6917,2.6961,2.6963,2.6965,2.7034,2.7035,2.7036,2.7036,2.7129,2.7132,2.7135,2.7136,0,0,2.7144,2.7146,0,0,0,0,0,0,0,0,2.6797,2.6806,2.6903,2.6908,2.6915,2.6987,2.695,2.7022,2.7034,2.6989,2.7036,2.7037,2.7082,2.7089,2.7105,2.7141,2.7145,2.7145,2.7146,2.7148,2.7148,0,0,0,0,0,0,0,2.6792,2.6802,2.6902,2.6904,2.6911,2.6926,2.6938,2.6964,2.7029,2.6993,2.6999,2.701,2.7085,2.7102,2.7108,2.7146,2.7144,2.7147,2.7149,2.715,2.7185,2.7184,0,0,0,0,0,0,2.678,2.6797,2.6899,2.6905,2.6857,2.6928,2.6941,2.6962,2.7029,2.704,2.7009,2.7013,2.7097,2.7104,2.7111,2.7116,2.7148,2.715,2.7152,2.7186,2.7185,2.7184,0,0,0,0,0,0,2.6776,2.6788,2.6895,2.6853,2.6867,2.693,2.6953,2.6964,2.6981,2.7041,2.7052,2.7015,2.7098,2.7107,2.7129,2.712,2.7152,2.7154,2.7187,2.7185,2.7184,2.7125,0,0,0,0,0,0,2.6772,2.6787,2.679,2.6852,2.6869,2.6913,2.6952,2.6965,2.6987,2.6993,2.705,2.706,2.7099,2.7125,2.7132,2.7125,2.7157,2.7188,2.7186,2.7185,2.7128,2.7122,2.7117,0,0,0,0,0,2.6767,2.6768,2.6789,2.6801,2.6875,2.6912,2.6922,2.6969,2.6986,2.6988,2.7026,2.7058,2.712,2.7126,2.7136,2.7129,2.7189,2.7187,2.7185,2.7131,2.7123,2.7117,0,0,0,0,0,0,2.6701,2.6777,2.6802,2.6823,2.6861,2.6924,2.6929,2.696,2.6992,2.6995,2.705,2.7062,2.7078,2.7106,2.7112,2.7132,2.7158,2.7158,2.7114,2.7107,2.7101,2.7094,2.7159,0,0,0,0,0,2.6689,2.6716,2.678,2.6793,2.6811,2.6866,2.6884,2.6917,2.6957,2.6973,2.7013,2.7049,2.7076,2.7093,2.7122,2.7132,2.7144,2.7132,2.7126,2.7121,2.712,2.7125,2.712,2.7177,2.7177,2.7177,0,0,2.6664,2.6709,2.6723,2.678,2.6814,2.6837,2.6879,2.6903,2.692,2.6976,2.7,2.703,2.7073,2.7089,2.7098,2.7113,2.7107,2.7119,2.7114,2.7116,2.7123,2.7117,2.7112,2.7176,2.7176,2.7176,0,0,2.6632,2.6669,2.6683,2.6716,2.6766,2.6802,2.6805,2.6864,2.6886,2.6911,2.6953,2.6973,2.702,2.7049,2.7069,2.7045,2.7075,2.7053,2.7022,2.7027,2.7022,2.7019,2.7008,2.7004,2.7051,2.7051,2.7051,0,2.6594,2.6634,2.6686,2.6707,2.673,2.6783,2.6796,2.6824,2.688,2.6893,2.6909,2.6968,2.7001,2.7024,2.7017,2.7033,2.7036,2.7047,2.7019,2.7016,2.7013,2.7004,2.7,2.7048,2.7049,2.7049,2.7049,0,2.6585,2.6611,2.6616,2.6671,2.6694,2.6711,2.6762,2.6779,2.6809,2.6843,2.6866,2.6908,2.6945,2.6953,2.6982,2.6978,2.6986,2.701,2.7037,2.7004,2.6996,2.6993,2.7044,2.7045,2.7046,2.7047,0,0,2.6514,2.6596,2.6597,2.6621,2.6679,2.67,2.6717,2.6756,2.6768,2.6804,2.6819,2.6856,2.6878,2.6901,2.6934,2.6938,2.6914,2.6961,2.6963,2.695,2.691,2.6891,2.6887,2.6934,2.6933,2.6933,2.6906,0,2.6489,2.6527,2.6573,2.6594,2.6618,2.6667,2.6682,2.6718,2.6749,2.6772,2.6806,2.6831,2.686,2.6874,2.688,2.6915,2.6906,2.6918,2.6946,2.6946,2.6933,2.6883,2.6864,2.6837,2.6904,2.6903,2.6903,0,2.6466,2.6501,2.6525,2.6579,2.6591,2.6604,2.6641,2.6663,2.6703,2.6726,2.6751,2.6786,2.6804,2.6828,2.6853,2.686,2.6873,2.6892,2.6892,2.6896,2.6922,2.6885,2.6829,2.6825,2.6899,2.6899,2.6899,0,2.6411,2.6463,2.6484,2.6503,2.6568,2.6575,2.6602,2.6644,2.6663,2.6694,2.6707,2.6739,2.6757,2.678,2.6821,2.6836,2.684,2.6869,2.6858,2.6856,2.6856,2.6856,2.6802,2.6866,2.6866,2.6866,2.6866,0,2.6378,2.639,2.646,2.6472,2.6486,2.6537,2.6549,2.658,2.6615,2.6633,2.6677,2.6691,2.6746,2.6766,2.6798,2.6812,2.682,2.6837,2.6845,2.6833,2.683,2.6842,2.6845,2.6865,2.6865,2.6866,2.6866,0,2.6319,2.6366,2.6392,2.645,2.6465,2.6473,2.6522,2.6534,2.6568,2.6589,2.6597,2.6649,2.6674,2.6718,2.6756,2.6778,2.6785,2.68,2.6772,2.6777,2.6763,2.6763,2.6714,2.671,2.6777,2.6777,2.6776,0,2.6295,2.6306,2.6365,2.6381,2.6407,2.6431,2.6451,2.6501,2.652,2.6565,2.6571,2.6601,2.6627,2.6666,2.6705,2.6734,2.6749,2.673,2.6753,2.674,2.6747,2.6746,2.6746,2.6724,2.6723,2.6722,2.6721,0,2.6247,2.6269,2.6298,2.6334,2.6357,2.6387,2.6419,2.6428,2.6485,2.6502,2.6531,2.6551,2.659,2.6618,2.6652,2.6677,2.6707,2.6714,2.6712,2.6699,2.6683,2.669,2.6756,2.6714,2.6715,2.6716,2.6716,2.6716,2.6204,2.6215,2.6258,2.6288,2.6317,2.6346,2.636,2.6396,2.6421,2.6458,2.6485,2.651,2.6547,2.6597,2.6619,2.6638,2.6652,2.6651,2.665,2.6649,2.6643,2.668,2.6644,2.6645,2.6645,2.6645,2.6645,0,2.6157,2.6187,2.6214,2.6258,2.628,2.6309,2.6345,2.6361,2.6384,2.6417,2.6443,2.6473,2.65,2.6541,2.657,2.6577,2.6592,2.6583,2.6583,2.6587,2.663,2.6627,2.6571,2.6571,2.6571,2.6571,2.6571,2.6571,2.6135,2.6155,2.6182,2.6216,2.6245,2.6272,2.629,2.6316,2.6342,2.6375,2.6399,2.6426,2.6461,2.6494,2.6518,2.653,2.6538,2.6524,2.6539,2.6578,2.6585,2.6591,2.6589,2.6526,2.6526,2.6496,2.6496,2.6495]}]]